Location: Mahannah Oil Field
(37.4664°N, 96.6003°W)
Time: 03:31:26
(UTC+00:00)

deb Explorer IX - Pass Details

Date: 23 January 2021
Orbit: 537 x 1102 km, 38.8° (Epoch: 01 March)

Event Time Altitude Azimuth Distance (km) Brightness Sun altitude
Rises 07:00:52 0° 271° (W) 2,898 - -71.2°
Reaches altitude 10° 07:05:03 10° 235° (SW) 1,878 - -71.0°
Maximum altitude 07:06:08 11° 220° (SW) 1,800 - -70.9°
Drops below altitude 10° 07:07:12 10° 205° (SSW) 1,834 - -70.8°
Sets 07:11:05 0° 167° (SSE) 2,673 - -70.5°
